Date String (YYYY-MM-DD hh:mm:ss) UTC,Instrument flags,absolute air pressure of the measurement (hPa),sample flow rate (lpm),inlet stack bypass flow (lpm),air temperature of the measurement (°C),ambient temperature measured by the external sensor (°C),aerosol sample conditioner tube jacket temperature (°C),OPC LED temperature (°C),internal box temperature (°C),relative humidity of the measurement (%),span deviation,mass concentration of particles derived from Lorenz-Mie calculation of OPC scattering (μg/m³),mass concentration of particles derived from Lorenz-Mie calculation of OPC scattering (μg/m³),mass concentration of particles derived from Lorenz-Mie calculation of OPC scattering (μg/m³)
DateTimeUTC,F1_M11,P_M11,Q1_M11,Q2_M11,T1_M11,T2_M11,T3_M11,T4_M11,T5_M11,U1_M11,ZSPAN_M11,X0_M11,X2_M11,X1_M11
2023-12-22 22:00:00,SystemResetWarning,0828.0,5.00,000.00,026.1,024.0,000.0,034.1,027.6,11.4,0000.0,0011.36,0005.48,0004.90
2023-12-22 22:01:00,SystemResetWarning,0827.9,5.01,000.00,026.0,022.6,000.0,034.1,027.4,11.5,0000.0,0011.15,0005.48,0004.90
2023-12-22 22:02:00,SystemResetWarning,0827.9,5.01,000.00,025.9,022.6,000.0,034.1,027.1,11.5,0000.0,0011.07,0005.48,0004.90
2023-12-22 22:03:00,SystemResetWarning,0827.8,5.01,000.00,025.8,022.9,000.0,034.0,026.8,11.6,0000.0,0010.98,0005.48,0004.90
2023-12-22 22:04:00,SystemResetWarning,0827.9,4.99,000.00,025.7,023.2,000.0,034.0,026.9,11.7,0000.0,0010.87,0005.45,0004.89
2023-12-22 22:05:00,SystemResetWarning,0828.0,5.00,000.00,025.7,023.6,000.0,034.0,027.0,11.8,0000.0,0012.14,0005.46,0004.90
2023-12-22 22:06:00,SystemResetWarning,0827.8,5.00,000.00,025.7,023.8,000.0,034.0,027.1,11.9,0000.0,0012.95,0005.48,0004.92
2023-12-22 22:07:00,SystemResetWarning,0827.8,5.01,000.00,025.7,024.1,000.0,034.0,027.2,11.9,0000.0,0012.92,0005.47,0004.93
2023-12-22 22:08:00,SystemResetWarning,0827.8,5.00,000.00,025.8,024.3,000.0,034.0,027.2,11.9,0000.0,0013.61,0005.52,0004.93
2023-12-22 22:09:00,SystemResetWarning,0827.8,4.98,000.00,025.8,024.5,000.0,034.0,027.3,11.9,0000.0,0014.32,0005.54,0004.93
2023-12-22 22:10:00,SystemResetWarning,0827.8,5.00,000.00,025.8,024.7,000.0,034.0,027.4,11.8,0000.0,0014.61,0005.57,0004.95
2023-12-22 22:11:00,SystemResetWarning,0827.8,5.02,000.00,025.9,024.8,000.0,034.0,027.4,11.7,0000.0,0014.58,0005.60,0004.98
2023-12-22 22:12:00,SystemResetWarning,0827.8,5.00,000.00,025.9,024.9,000.0,034.0,027.5,11.7,0000.0,0014.16,0005.64,0005.00
2023-12-22 22:13:00,SystemResetWarning,0827.9,5.00,000.00,026.0,025.0,000.0,034.0,027.5,11.7,0000.0,0013.91,0005.68,0005.03
2023-12-22 22:14:00,SystemResetWarning,0827.8,5.00,000.00,026.0,025.1,000.0,034.0,027.6,11.6,0000.0,0014.04,0005.74,0005.09
2023-12-22 22:15:00,SystemResetWarning,0827.8,5.00,000.00,026.0,025.2,000.0,034.1,027.6,11.5,0000.0,0014.22,0005.82,0005.15
2023-12-22 22:16:00,SystemResetWarning,0827.9,4.99,000.00,026.1,024.9,000.0,034.1,027.7,11.4,0000.0,0013.45,0005.90,0005.21
2023-12-22 22:17:00,SystemResetWarning,0827.7,5.00,000.00,026.0,023.1,000.0,034.1,027.5,11.5,0000.0,0013.24,0005.95,0005.25
2023-12-22 22:18:00,SystemResetWarning,0827.7,5.00,000.00,026.0,022.4,000.0,034.0,027.3,11.5,0000.0,0013.92,0006.03,0005.30
2023-12-22 22:19:00,SystemResetWarning,0827.7,5.01,000.00,025.8,022.6,000.0,034.0,026.8,11.6,0000.0,0014.79,0006.08,0005.35
2023-12-22 22:20:00,SystemResetWarning,0827.8,5.00,000.00,025.7,022.9,000.0,034.0,026.8,11.6,0000.0,0014.65,0006.13,0005.41
2023-12-22 22:21:00,SystemResetWarning,0827.7,5.00,000.00,025.7,023.3,000.0,034.0,026.9,11.7,0000.0,0014.50,0006.13,0005.43
2023-12-22 22:22:00,SystemResetWarning,0827.8,5.00,000.00,025.7,023.6,000.0,033.9,027.0,11.8,0000.0,0014.67,0006.17,0005.46
2023-12-22 22:23:00,SystemResetWarning,0827.7,4.99,000.00,025.7,023.9,000.0,033.9,027.1,11.7,0000.0,0015.02,0006.18,0005.49
2023-12-22 22:24:00,SystemResetWarning,0827.7,5.00,000.00,025.7,024.1,000.0,033.9,027.2,11.7,0000.0,0015.45,0006.21,0005.50
2023-12-22 22:25:00,SystemResetWarning,0827.8,5.00,000.00,025.8,024.4,000.0,033.9,027.3,11.7,0000.0,0016.28,0006.21,0005.50
2023-12-22 22:26:00,SystemResetWarning,0827.8,5.01,000.00,025.8,024.5,000.0,033.9,027.3,11.7,0000.0,0016.46,0006.18,0005.48
2023-12-22 22:27:00,SystemResetWarning,0827.8,4.99,000.00,025.8,024.7,000.0,033.9,027.4,11.7,0000.0,0016.66,0006.18,0005.47
2023-12-22 22:28:00,SystemResetWarning,0827.7,4.99,000.00,025.9,024.8,000.0,033.9,027.4,11.7,0000.0,0015.87,0006.18,0005.45
2023-12-22 22:29:00,SystemResetWarning,0827.7,5.00,000.00,025.9,024.9,000.0,034.0,027.5,11.6,0000.0,0015.50,0006.15,0005.44
2023-12-22 22:30:00,SystemResetWarning,0827.7,5.01,000.00,025.9,025.0,000.0,034.0,027.5,11.6,0000.0,0014.59,0006.15,0005.45
2023-12-22 22:31:00,SystemResetWarning,0827.7,5.00,000.00,026.0,025.1,000.0,034.0,027.5,11.6,0000.0,0013.96,0006.14,0005.44
2023-12-22 22:32:00,SystemResetWarning,0827.7,4.99,000.00,026.0,025.2,000.0,034.0,027.6,11.6,0000.0,0014.07,0006.19,0005.46
2023-12-22 22:33:00,SystemResetWarning,0827.8,4.99,000.00,026.1,025.3,000.0,034.1,027.6,11.5,0000.0,0014.64,0006.22,0005.47
2023-12-22 22:34:00,SystemResetWarning,0827.8,5.01,000.00,026.1,025.3,000.0,034.1,027.7,11.4,0000.0,0014.76,0006.25,0005.48
2023-12-22 22:35:00,SystemResetWarning,0827.8,4.99,000.00,026.1,024.4,000.0,034.1,027.7,11.4,0000.0,0014.57,0006.26,0005.50
2023-12-22 22:36:00,SystemResetWarning,0827.7,5.01,000.00,026.0,022.6,000.0,034.1,027.5,11.4,0000.0,0013.82,0006.28,0005.52
2023-12-22 22:37:00,SystemResetWarning,0827.7,5.01,000.00,026.0,022.3,000.0,034.0,027.2,11.5,0000.0,0014.04,0006.32,0005.55
2023-12-22 22:38:00,SystemResetWarning,0827.7,5.00,000.00,025.8,022.6,000.0,034.0,026.8,11.5,0000.0,0014.21,0006.32,0005.55
2023-12-22 22:39:00,SystemResetWarning,0827.7,5.00,000.00,025.7,023.0,000.0,034.0,026.8,11.6,0000.0,0014.81,0006.31,0005.56
2023-12-22 22:40:00,SystemResetWarning,0827.7,5.01,000.00,025.7,023.4,000.0,034.0,026.9,11.7,0000.0,0015.69,0006.31,0005.57
2023-12-22 22:41:00,SystemResetWarning,0827.7,4.99,000.00,025.7,023.7,000.0,033.9,027.0,11.7,0000.0,0015.69,0006.31,0005.57
2023-12-22 22:42:00,SystemResetWarning,0827.7,4.99,000.00,025.7,024.0,000.0,033.9,027.1,11.8,0000.0,0016.19,0006.34,0005.58
2023-12-22 22:43:00,SystemResetWarning,0827.8,5.00,000.00,025.7,024.2,000.0,033.9,027.2,11.8,0000.0,0016.65,0006.32,0005.58
2023-12-22 22:44:00,SystemResetWarning,0827.8,5.00,000.00,025.8,024.4,000.0,033.9,027.3,11.8,0000.0,0016.95,0006.28,0005.58
2023-12-22 22:45:00,SystemResetWarning,0827.8,5.01,000.00,025.8,024.6,000.0,033.9,027.3,11.8,0000.0,0016.57,0006.27,0005.59
2023-12-22 22:46:00,SystemResetWarning,0827.8,5.00,000.00,025.8,024.7,000.0,034.0,027.4,11.7,0000.0,0015.90,0006.25,0005.59
2023-12-22 22:47:00,SystemResetWarning,0827.8,4.98,000.00,025.9,024.9,000.0,034.0,027.4,11.6,0000.0,0015.99,0006.24,0005.58
2023-12-22 22:48:00,SystemResetWarning,0827.8,5.01,000.00,025.9,025.0,000.0,034.0,027.5,11.6,0000.0,0017.09,0006.26,0005.58
2023-12-22 22:49:00,SystemResetWarning,0827.8,5.00,000.00,026.0,025.1,000.0,034.0,027.5,11.6,0000.0,0017.31,0006.29,0005.59
2023-12-22 22:50:00,SystemResetWarning,0827.8,4.98,000.00,026.0,025.2,000.0,034.0,027.6,11.5,0000.0,0017.86,0006.30,0005.60
2023-12-22 22:51:00,SystemResetWarning,0827.8,5.01,000.00,026.0,025.2,000.0,034.1,027.6,11.5,0000.0,0017.07,0006.34,0005.61
2023-12-22 22:52:00,SystemResetWarning,0827.8,5.01,000.00,026.1,025.3,000.0,034.1,027.7,11.4,0000.0,0017.24,0006.36,0005.61
2023-12-22 22:53:00,SystemResetWarning,0827.7,4.97,000.00,026.1,024.6,000.0,034.1,027.7,11.4,0000.0,0016.65,0006.35,0005.63
2023-12-22 22:54:00,SystemResetWarning,0827.8,5.02,000.00,026.0,022.7,000.0,034.1,027.5,11.4,0000.0,0016.11,0006.36,0005.65
2023-12-22 22:55:00,SystemResetWarning,0827.7,5.00,000.00,025.9,022.3,000.0,034.0,027.2,11.4,0000.0,0016.05,0006.39,0005.66
2023-12-22 22:56:00,SystemResetWarning,0827.7,4.99,000.00,025.8,022.5,000.0,034.0,026.7,11.5,0000.0,0016.15,0006.40,0005.67
2023-12-22 22:57:00,SystemResetWarning,0827.8,5.00,000.00,025.7,022.9,000.0,034.0,026.8,11.5,0000.0,0016.38,0006.48,0005.68
2023-12-22 22:58:00,SystemResetWarning,0827.7,5.00,000.00,025.7,023.3,000.0,034.0,026.9,11.5,0000.0,0016.24,0006.53,0005.71
2023-12-22 22:59:00,SystemResetWarning,0827.8,5.01,000.00,025.7,023.6,000.0,033.9,027.0,11.5,0000.0,0015.04,0006.51,0005.71
